CEB488 RPVB-RPLL

Flight info

Callsign CEB488
Flight time 0h 50m
Altitude 32000
Route GALIA2A GALIA TR8 KLO TR19 MINOR B473 LAIYA LAIYA1A
Aircraft A321/M-SDE3FGHIRWY/LB1

Departure

Time 2026-04-16 20:36
Airport Bacolod-Silay International Airport (RPVB)

Arrival

Time 2026-04-16 21:27
Airport Ninoy Aquino International Airport (RPLL)
Time Latitude Longitude Altitude Speed Heading
2026-04-16 19:50 10.77675 123.01574 93 ft 0 kts 300°
2026-04-16 20:27 10.77672 123.01579 97 ft 4 kts 300°
2026-04-16 20:28 10.77658 123.01603 91 ft 4 kts 300°
2026-04-16 20:28 10.77647 123.01624 93 ft 4 kts 273°
2026-04-16 20:28 10.77655 123.01645 93 ft 4 kts 216°
2026-04-16 20:28 10.77669 123.01654 93 ft 1 kts 211°
2026-04-16 20:29 10.77671 123.01655 93 ft 0 kts 211°
2026-04-16 20:31 10.77667 123.01653 93 ft 1 kts 210°
2026-04-16 20:31 10.77629 123.01630 93 ft 10 kts 211°
2026-04-16 20:31 10.77588 123.01605 94 ft 6 kts 211°
2026-04-16 20:31 10.77552 123.01585 93 ft 5 kts 207°
2026-04-16 20:32 10.77521 123.01568 96 ft 5 kts 208°
2026-04-16 20:32 10.77496 123.01554 94 ft 4 kts 209°
2026-04-16 20:32 10.77469 123.01539 94 ft 5 kts 209°
2026-04-16 20:32 10.77439 123.01522 95 ft 5 kts 209°
2026-04-16 20:33 10.77401 123.01511 92 ft 6 kts 184°
2026-04-16 20:33 10.77360 123.01527 94 ft 7 kts 137°
2026-04-16 20:33 10.77333 123.01571 94 ft 8 kts 120°
2026-04-16 20:33 10.77301 123.01627 93 ft 10 kts 120°
2026-04-16 20:34 10.77242 123.01662 95 ft 11 kts 189°
2026-04-16 20:34 10.77174 123.01628 95 ft 11 kts 208°
2026-04-16 20:34 10.77106 123.01590 95 ft 11 kts 210°
2026-04-16 20:34 10.77035 123.01548 96 ft 13 kts 210°
2026-04-16 20:35 10.76967 123.01506 96 ft 9 kts 214°
2026-04-16 20:35 10.76933 123.01455 97 ft 7 kts 238°
2026-04-16 20:35 10.76897 123.01441 96 ft 7 kts 148°
2026-04-16 20:35 10.76923 123.01483 98 ft 11 kts 25°
2026-04-16 20:36 10.77079 123.01565 96 ft 56 kts 31°
2026-04-16 20:36 10.77610 123.01883 96 ft 121 kts 30°
2026-04-16 20:36 10.78475 123.02379 271 ft 151 kts 28°
2026-04-16 20:36 10.79360 123.02868 979 ft 144 kts 31°
2026-04-16 20:37 10.80232 123.03368 1628 ft 143 kts 32°
2026-04-16 20:37 10.81112 123.03891 2108 ft 153 kts 31°
2026-04-16 20:37 10.82083 123.04457 2443 ft 171 kts 32°
2026-04-16 20:37 10.83164 123.05089 2756 ft 189 kts 31°
2026-04-16 20:38 10.84374 123.05784 3008 ft 207 kts 31°
2026-04-16 20:38 10.85722 123.06486 3217 ft 231 kts 20°
2026-04-16 20:38 10.87413 123.06776 3430 ft 263 kts
2026-04-16 20:38 10.89188 123.06379 4130 ft 270 kts 334°
2026-04-16 20:39 10.90669 123.05189 4998 ft 274 kts 310°
2026-04-16 20:39 10.91676 123.03514 5678 ft 281 kts 295°
2026-04-16 20:39 10.92495 123.01695 6481 ft 284 kts 294°
2026-04-16 20:39 10.93295 122.99850 7221 ft 288 kts 294°
2026-04-16 20:40 10.94123 122.97978 7926 ft 293 kts 295°
2026-04-16 20:40 10.94685 122.96719 8415 ft 295 kts 295°
2026-04-16 20:40 10.95544 122.94808 9133 ft 300 kts 295°
2026-04-16 20:40 10.96708 122.92229 10061 ft 305 kts 296°
2026-04-16 20:41 10.97781 122.90294 10318 ft 324 kts 306°
2026-04-16 20:41 10.98675 122.88994 10425 ft 339 kts 306°
2026-04-16 20:41 11.00816 122.86619 11030 ft 348 kts 323°
2026-04-16 20:41 11.02124 122.85612 11458 ft 350 kts 326°
2026-04-16 20:42 11.04141 122.84212 12143 ft 352 kts 327°
2026-04-16 20:42 11.06116 122.82786 12824 ft 354 kts 326°
2026-04-16 20:42 11.08106 122.81283 13506 ft 356 kts 325°
2026-04-16 20:42 11.10095 122.79767 14110 ft 358 kts 325°
2026-04-16 20:43 11.12106 122.78250 14663 ft 361 kts 325°
2026-04-16 20:43 11.14144 122.76741 15204 ft 364 kts 326°
2026-04-16 20:43 11.16213 122.75232 15766 ft 367 kts 326°
2026-04-16 20:43 11.18279 122.73743 16290 ft 371 kts 326°
2026-04-16 20:44 11.20396 122.72223 16835 ft 374 kts 326°
2026-04-16 20:44 11.22530 122.70690 17351 ft 378 kts 326°
2026-04-16 20:44 11.24689 122.69140 17883 ft 381 kts 326°
2026-04-16 20:44 11.26869 122.67573 18367 ft 384 kts 326°
2026-04-16 20:45 11.29060 122.65993 18808 ft 387 kts 326°
2026-04-16 20:45 11.31270 122.64400 19238 ft 390 kts 326°
2026-04-16 20:45 11.33496 122.62821 19674 ft 393 kts 326°
2026-04-16 20:45 11.35729 122.61256 20106 ft 395 kts 326°
2026-04-16 20:46 11.38007 122.59668 20532 ft 398 kts 326°
2026-04-16 20:46 11.40298 122.58074 20941 ft 400 kts 326°
2026-04-16 20:46 11.42604 122.56466 21348 ft 403 kts 326°
2026-04-16 20:46 11.44919 122.54844 21751 ft 405 kts 326°
2026-04-16 20:47 11.47248 122.53206 22169 ft 407 kts 326°
2026-04-16 20:47 11.49585 122.51557 22583 ft 409 kts 326°
2026-04-16 20:47 11.51932 122.49897 22968 ft 412 kts 326°
2026-04-16 20:47 11.54265 122.48247 23341 ft 415 kts 325°
2026-04-16 20:48 11.56647 122.46567 23656 ft 418 kts 325°
2026-04-16 20:48 11.59046 122.44875 23962 ft 420 kts 325°
2026-04-16 20:48 11.61460 122.43176 24277 ft 422 kts 325°
2026-04-16 20:48 11.63885 122.41474 24600 ft 424 kts 326°
2026-04-16 20:49 11.66334 122.39786 24914 ft 426 kts 329°
2026-04-16 20:49 11.68985 122.38433 25227 ft 428 kts 339°
2026-04-16 20:49 11.71839 122.37565 25527 ft 430 kts 348°
2026-04-16 20:49 11.74771 122.36936 25846 ft 431 kts 348°
2026-04-16 20:50 11.77674 122.36310 26148 ft 434 kts 348°
2026-04-16 20:50 11.80633 122.35669 26444 ft 436 kts 348°
2026-04-16 20:50 11.83611 122.35024 26740 ft 438 kts 348°
2026-04-16 20:50 11.86600 122.34377 27042 ft 440 kts 348°
2026-04-16 20:51 11.89601 122.33726 27346 ft 442 kts 348°
2026-04-16 20:51 11.92617 122.33069 27640 ft 444 kts 348°
2026-04-16 20:51 11.95591 122.32421 27928 ft 446 kts 348°
2026-04-16 20:51 11.98647 122.31755 28218 ft 448 kts 348°
2026-04-16 20:52 12.01705 122.31090 28516 ft 450 kts 348°
2026-04-16 20:52 12.04778 122.30423 28804 ft 452 kts 348°
2026-04-16 20:52 12.07859 122.29755 29088 ft 454 kts 348°
2026-04-16 20:52 12.10956 122.29084 29343 ft 456 kts 348°
2026-04-16 20:53 12.14068 122.28407 29620 ft 458 kts 348°
2026-04-16 20:53 12.17194 122.27726 29884 ft 460 kts 348°
2026-04-16 20:53 12.20331 122.27042 30117 ft 462 kts 348°
2026-04-16 20:53 12.23484 122.26354 30345 ft 464 kts 348°
2026-04-16 20:54 12.26642 122.25668 30592 ft 465 kts 348°
2026-04-16 20:54 12.29768 122.24991 30838 ft 466 kts 348°
2026-04-16 20:54 12.32942 122.24301 31088 ft 467 kts 347°
2026-04-16 20:54 12.36056 122.23356 31379 ft 467 kts 338°
2026-04-16 20:55 12.38977 122.21913 31742 ft 466 kts 329°
2026-04-16 20:55 12.41687 122.20102 31891 ft 464 kts 326°
2026-04-16 20:55 12.44319 122.18275 31919 ft 449 kts 326°
2026-04-16 20:55 12.46841 122.16514 31920 ft 442 kts 326°
2026-04-16 20:56 12.51896 122.12995 31919 ft 439 kts 326°
2026-04-16 20:56 12.56943 122.09488 31920 ft 438 kts 326°
2026-04-16 20:57 12.61983 122.05990 31918 ft 438 kts 326°
2026-04-16 20:57 12.67021 122.02479 31916 ft 438 kts 326°
2026-04-16 20:58 12.72033 121.98986 31919 ft 438 kts 326°
2026-04-16 20:58 12.77070 121.95475 31913 ft 438 kts 326°
2026-04-16 20:59 12.82110 121.91964 31913 ft 438 kts 326°
2026-04-16 20:59 12.87149 121.88454 31913 ft 438 kts 326°
2026-04-16 21:00 12.92148 121.84975 31832 ft 438 kts 326°
2026-04-16 21:00 12.94674 121.83214 31591 ft 438 kts 326°
2026-04-16 21:00 12.97196 121.81453 31346 ft 438 kts 326°
2026-04-16 21:01 12.99714 121.79694 31122 ft 439 kts 326°
2026-04-16 21:01 13.02241 121.77928 30894 ft 440 kts 326°
2026-04-16 21:01 13.04738 121.76183 30664 ft 440 kts 326°
2026-04-16 21:01 13.07260 121.74422 30436 ft 439 kts 326°
2026-04-16 21:02 13.09782 121.72662 30213 ft 437 kts 326°
2026-04-16 21:02 13.12292 121.70911 29984 ft 436 kts 326°
2026-04-16 21:02 13.14799 121.69159 29721 ft 435 kts 326°
2026-04-16 21:03 13.19783 121.65673 29194 ft 432 kts 326°
2026-04-16 21:03 13.22257 121.63941 28888 ft 430 kts 326°
2026-04-16 21:03 13.24686 121.62241 28482 ft 427 kts 326°
2026-04-16 21:03 13.27133 121.60529 28079 ft 424 kts 326°
2026-04-16 21:04 13.29561 121.58831 27679 ft 421 kts 326°
2026-04-16 21:04 13.31975 121.57142 27282 ft 418 kts 326°
2026-04-16 21:04 13.34370 121.55465 26895 ft 416 kts 326°
2026-04-16 21:04 13.36751 121.53796 26511 ft 413 kts 326°
2026-04-16 21:05 13.39113 121.52140 26139 ft 410 kts 326°
2026-04-16 21:05 13.41459 121.50496 25697 ft 406 kts 325°
2026-04-16 21:05 13.43757 121.48883 25306 ft 404 kts 325°
2026-04-16 21:05 13.46069 121.47259 24916 ft 402 kts 325°
2026-04-16 21:06 13.48348 121.45661 24541 ft 399 kts 325°
2026-04-16 21:06 13.50656 121.44043 24166 ft 397 kts 325°
2026-04-16 21:06 13.52927 121.42448 23803 ft 394 kts 325°
2026-04-16 21:06 13.55181 121.40865 23425 ft 392 kts 325°
2026-04-16 21:07 13.57424 121.39288 22984 ft 389 kts 325°
2026-04-16 21:07 13.59656 121.37727 22550 ft 386 kts 326°
2026-04-16 21:07 13.61872 121.36186 22123 ft 383 kts 326°
2026-04-16 21:07 13.64040 121.34681 21709 ft 380 kts 326°
2026-04-16 21:08 13.66219 121.33167 21291 ft 377 kts 326°
2026-04-16 21:08 13.68386 121.31662 20884 ft 374 kts 326°
2026-04-16 21:08 13.70536 121.30168 20486 ft 371 kts 326°
2026-04-16 21:08 13.72665 121.28689 20088 ft 368 kts 327°
2026-04-16 21:09 13.74783 121.27217 19688 ft 366 kts 327°
2026-04-16 21:09 13.76877 121.25758 19297 ft 363 kts 327°
2026-04-16 21:09 13.78962 121.24301 18915 ft 360 kts 327°
2026-04-16 21:09 13.81000 121.22877 18544 ft 358 kts 327°
2026-04-16 21:10 13.83051 121.21446 18165 ft 355 kts 327°
2026-04-16 21:10 13.85089 121.20022 17732 ft 353 kts 327°
2026-04-16 21:10 13.87112 121.18607 17299 ft 351 kts 327°
2026-04-16 21:10 13.89125 121.17197 16876 ft 349 kts 327°
2026-04-16 21:11 13.91131 121.15797 16461 ft 347 kts 327°
2026-04-16 21:11 13.93126 121.14408 16049 ft 345 kts 327°
2026-04-16 21:11 13.95184 121.13147 15638 ft 342 kts 336°
2026-04-16 21:11 13.97389 121.12344 15109 ft 342 kts 348°
2026-04-16 21:12 13.99734 121.11885 14577 ft 343 kts 351°
2026-04-16 21:12 14.02075 121.11445 14128 ft 342 kts 351°
2026-04-16 21:12 14.04416 121.11001 13660 ft 341 kts 351°
2026-04-16 21:12 14.06741 121.10559 13158 ft 340 kts 351°
2026-04-16 21:13 14.09073 121.10116 12657 ft 339 kts 351°
2026-04-16 21:13 14.11360 121.09681 12173 ft 338 kts 351°
2026-04-16 21:13 14.13657 121.09245 11691 ft 337 kts 351°
2026-04-16 21:13 14.15974 121.08805 11206 ft 336 kts 351°
2026-04-16 21:14 14.18269 121.08371 10736 ft 333 kts 351°
2026-04-16 21:14 14.20538 121.07938 10266 ft 330 kts 351°
2026-04-16 21:14 14.22779 121.07505 9809 ft 327 kts 351°
2026-04-16 21:14 14.24995 121.07170 9293 ft 316 kts
2026-04-16 21:15 14.27038 121.07613 9016 ft 296 kts 27°
2026-04-16 21:15 14.28755 121.08683 8602 ft 285 kts 36°
2026-04-16 21:15 14.30371 121.09850 8073 ft 282 kts 37°
2026-04-16 21:15 14.31966 121.11024 7600 ft 281 kts 37°
2026-04-16 21:16 14.33551 121.12199 7237 ft 279 kts 37°
2026-04-16 21:16 14.35122 121.13369 6864 ft 278 kts 37°
2026-04-16 21:16 14.36680 121.14535 6498 ft 276 kts 37°
2026-04-16 21:16 14.38235 121.15702 6114 ft 275 kts 37°
2026-04-16 21:17 14.39735 121.16830 5911 ft 266 kts 37°
2026-04-16 21:17 14.41203 121.17939 5735 ft 257 kts 37°
2026-04-16 21:17 14.42629 121.19023 5487 ft 252 kts 37°
2026-04-16 21:17 14.44027 121.20089 5245 ft 247 kts 37°
2026-04-16 21:18 14.45385 121.21125 5009 ft 243 kts 37°
2026-04-16 21:18 14.46749 121.22166 4769 ft 239 kts 37°
2026-04-16 21:18 14.48063 121.23167 4526 ft 236 kts 37°
2026-04-16 21:18 14.49368 121.24160 4369 ft 229 kts 37°
2026-04-16 21:19 14.50618 121.25111 4279 ft 216 kts 37°
2026-04-16 21:19 14.51874 121.25851 4079 ft 202 kts 24°
2026-04-16 21:19 14.53163 121.26405 3635 ft 200 kts 22°
2026-04-16 21:19 14.54448 121.26936 3275 ft 197 kts 22°
2026-04-16 21:20 14.55739 121.27276 3340 ft 200 kts 360°
2026-04-16 21:20 14.57131 121.27060 3375 ft 201 kts 348°
2026-04-16 21:20 14.58489 121.26737 3346 ft 201 kts 347°
2026-04-16 21:20 14.59852 121.26399 3252 ft 201 kts 347°
2026-04-16 21:21 14.61191 121.25999 3148 ft 201 kts 334°
2026-04-16 21:21 14.62193 121.25015 3051 ft 202 kts 301°
2026-04-16 21:21 14.62536 121.23677 2944 ft 187 kts 270°
2026-04-16 21:21 14.62222 121.22434 2833 ft 174 kts 242°
2026-04-16 21:22 14.61637 121.21377 2733 ft 167 kts 241°
2026-04-16 21:22 14.61072 121.20359 2640 ft 165 kts 240°
2026-04-16 21:22 14.60504 121.19336 2540 ft 164 kts 240°
2026-04-16 21:22 14.59938 121.18313 2443 ft 166 kts 240°
2026-04-16 21:23 14.59351 121.17255 2350 ft 172 kts 240°
2026-04-16 21:23 14.58756 121.16181 2253 ft 173 kts 240°
2026-04-16 21:23 14.58158 121.15103 2173 ft 173 kts 240°
2026-04-16 21:23 14.57562 121.14028 2094 ft 173 kts 240°
2026-04-16 21:24 14.56967 121.12954 2076 ft 173 kts 240°
2026-04-16 21:24 14.56377 121.11892 1991 ft 184 kts 240°
2026-04-16 21:24 14.55700 121.10670 1735 ft 199 kts 240°
2026-04-16 21:24 14.55014 121.09434 1465 ft 189 kts 240°
2026-04-16 21:25 14.54413 121.08352 1237 ft 163 kts 240°
2026-04-16 21:25 14.53870 121.07374 1036 ft 151 kts 240°
2026-04-16 21:25 14.53355 121.06445 863 ft 147 kts 240°
2026-04-16 21:25 14.52849 121.05533 687 ft 146 kts 239°
2026-04-16 21:26 14.52355 121.04642 507 ft 144 kts 239°
2026-04-16 21:26 14.51861 121.03755 318 ft 142 kts 239°
2026-04-16 21:26 14.51384 121.02872 131 ft 140 kts 239°
2026-04-16 21:26 14.50926 121.02031 70 ft 124 kts 238°
2026-04-16 21:27 14.50526 121.01356 64 ft 90 kts 239°
2026-04-16 21:27 14.50315 121.00964 65 ft 34 kts 250°
2026-04-16 21:27 14.50283 121.00783 63 ft 7 kts 264°
2026-04-16 21:27 14.50290 121.00734 66 ft 6 kts 303°
2026-04-16 21:28 14.50323 121.00725 61 ft 4 kts 11°
2026-04-16 21:28 14.50347 121.00746 60 ft 7 kts 46°
2026-04-16 21:28 14.50397 121.00824 65 ft 18 kts 64°
2026-04-16 21:28 14.50457 121.00939 63 ft 18 kts 60°
2026-04-16 21:29 14.50521 121.01051 64 ft 18 kts 60°
2026-04-16 21:29 14.50584 121.01163 64 ft 18 kts 59°
2026-04-16 21:29 14.50648 121.01275 69 ft 18 kts 59°
2026-04-16 21:29 14.50712 121.01388 64 ft 18 kts 60°
2026-04-16 21:30 14.50773 121.01505 63 ft 19 kts 62°
2026-04-16 21:30 14.50831 121.01610 65 ft 9 kts 59°
2026-04-16 21:30 14.50866 121.01660 66 ft 8 kts 31°
2026-04-16 21:30 14.50913 121.01644 67 ft 8 kts 320°
2026-04-16 21:31 14.50956 121.01602 65 ft 9 kts 317°
2026-04-16 21:31 14.51009 121.01552 66 ft 11 kts 317°
2026-04-16 21:31 14.51069 121.01488 63 ft 13 kts 312°
2026-04-16 21:31 14.51134 121.01415 65 ft 14 kts 314°
2026-04-16 21:32 14.51184 121.01365 64 ft 7 kts 333°
2026-04-16 21:32 14.51229 121.01377 67 ft 8 kts 19°
2026-04-16 21:32 14.51280 121.01425 61 ft 13 kts 46°
2026-04-16 21:32 14.51340 121.01498 66 ft 11 kts 50°
2026-04-16 21:33 14.51391 121.01537 69 ft 8 kts 352°
2026-04-16 21:33 14.51444 121.01497 63 ft 11 kts 315°
2026-04-16 21:33 14.51502 121.01437 65 ft 13 kts 315°
2026-04-16 21:33 14.51571 121.01366 61 ft 15 kts 315°
2026-04-16 21:34 14.51650 121.01285 66 ft 17 kts 314°
2026-04-16 21:34 14.51740 121.01191 59 ft 20 kts 315°
2026-04-16 21:34 14.51844 121.01087 67 ft 22 kts 316°
2026-04-16 21:34 14.51953 121.00974 62 ft 22 kts 314°
2026-04-16 21:35 14.52063 121.00860 67 ft 22 kts 315°
2026-04-16 21:35 14.52121 121.00797 59 ft 11 kts 313°
2026-04-16 21:35 14.52173 121.00754 64 ft 9 kts 355°
2026-04-16 21:35 14.52226 121.00776 69 ft 8 kts
2026-04-16 21:36 14.52271 121.00750 69 ft 8 kts 313°
2026-04-16 21:36 14.52308 121.00710 63 ft 8 kts 315°
2026-04-16 21:36 14.52346 121.00671 64 ft 8 kts 315°
2026-04-16 21:36 14.52384 121.00632 64 ft 8 kts 315°
2026-04-16 21:37 14.52421 121.00594 63 ft 6 kts 315°
2026-04-16 21:37 14.52444 121.00596 65 ft 3 kts 38°
2026-04-16 21:37 14.52459 121.00610 61 ft 3 kts 42°
2026-04-16 21:37 14.52473 121.00623 67 ft 3 kts 43°
2026-04-16 21:38 14.52486 121.00637 65 ft 3 kts 44°
2026-04-16 21:38 14.52494 121.00644 67 ft 0 kts 45°